• In Deutschland
  • Länderverzeichnis
  • Für 7 Tage
  • Wassertemperatur
  • Satellitenkarten
  • Wetterkarte
  • Widgets
  • user-avatar
    Anmelden

    Stündliche Wetter Naschawar

    Heute, 23 November, Donnerstag

    Zeit Temperatur Niederschläge Wind Luftdruck Luftfeuchtigkeit
    00:00 +16°C° 0 mm 2 m/S 731 mmHg 12%
    01:00 +16°C° 0 mm 1 m/S 731 mmHg 12%
    02:00 +16°C° 0 mm 1 m/S 730 mmHg 12%
    03:00 +15°C° 0 mm 1 m/S 730 mmHg 12%
    04:00 +15°C° 0 mm 1 m/S 730 mmHg 13%
    05:00 +15°C° 0 mm 1 m/S 730 mmHg 13%
    06:00 +15°C° 0 mm 1 m/S 730 mmHg 13%
    07:00 +16°C° 0 mm 1 m/S 730 mmHg 14%
    08:00 +16°C° 0 mm 1 m/S 730 mmHg 14%
    09:00 +19°C° 0 mm 1 m/S 730 mmHg 12%
    10:00 +21°C° 0 mm 1 m/S 731 mmHg 11%
    11:00 +22°C° 0 mm 1 m/S 731 mmHg 9%
    12:00 +23°C° 0 mm 1 m/S 731 mmHg 8%
    13:00 +24°C° 0 mm 1 m/S 730 mmHg 8%
    14:00 +25°C° 0 mm 1 m/S 730 mmHg 8%
    15:00 +23°C° 0 mm 1 m/S 730 mmHg 10%
    16:00 +22°C° 0 mm 1 m/S 730 mmHg 11%
    17:00 +19°C° 0 mm 0 m/S 730 mmHg 13%
    18:00 +20°C° 0 mm 1 m/S 731 mmHg 13%
    19:00 +19°C° 0 mm 1 m/S 731 mmHg 13%
    20:00 +19°C° 0 mm 1 m/S 731 mmHg 13%
    21:00 +18°C° 0 mm 1 m/S 732 mmHg 13%
    22:00 +18°C° 0 mm 1 m/S 732 mmHg 13%
    23:00 +16°C° 0 mm 1 m/S 732 mmHg 13%

    Morgen, 24 November, Freitag

    Zeit Temperatur Niederschläge Wind Luftdruck Luftfeuchtigkeit
    00:00 +16°C° 0 mm 1 m/S 732 mmHg 13%
    01:00 +16°C° 0 mm 1 m/S 732 mmHg 12%
    02:00 +15°C° 0 mm 1 m/S 732 mmHg 12%
    03:00 +15°C° 0 mm 1 m/S 731 mmHg 12%
    04:00 +15°C° 0 mm 1 m/S 731 mmHg 11%
    05:00 +14°C° 0 mm 1 m/S 731 mmHg 11%
    06:00 +15°C° 0 mm 1 m/S 731 mmHg 11%
    07:00 +15°C° 0 mm 1 m/S 732 mmHg 12%
    08:00 +16°C° 0 mm 1 m/S 732 mmHg 12%
    09:00 +19°C° 0 mm 1 m/S 732 mmHg 10%
    10:00 +21°C° 0 mm 1 m/S 732 mmHg 9%
    11:00 +23°C° 0 mm 1 m/S 733 mmHg 7%
    12:00 +24°C° 0 mm 1 m/S 732 mmHg 7%
    13:00 +25°C° 0 mm 1 m/S 732 mmHg 7%
    14:00 +26°C° 0 mm 1 m/S 731 mmHg 6%
    15:00 +25°C° 0 mm 1 m/S 731 mmHg 8%
    16:00 +23°C° 0 mm 1 m/S 731 mmHg 10%
    17:00 +22°C° 0 mm 1 m/S 731 mmHg 12%
    18:00 +22°C° 0 mm 1 m/S 731 mmHg 12%
    19:00 +22°C° 0 mm 1 m/S 732 mmHg 12%
    20:00 +21°C° 0 mm 1 m/S 732 mmHg 12%
    21:00 +21°C° 0 mm 1 m/S 732 mmHg 13%
    22:00 +20°C° 0 mm 1 m/S 732 mmHg 14%
    23:00 +19°C° 0 mm 1 m/S 732 mmHg 15%

    übermorgen, 25 November, Samstag

    Zeit Temperatur Niederschläge Wind Luftdruck Luftfeuchtigkeit
    00:00 +19°C° 0 mm 1 m/S 732 mmHg 16%
    01:00 +18°C° 0 mm 1 m/S 732 mmHg 17%
    02:00 +17°C° 0 mm 2 m/S 732 mmHg 17%
    03:00 +17°C° 0 mm 2 m/S 732 mmHg 18%
    04:00 +16°C° 0 mm 2 m/S 732 mmHg 18%
    05:00 +16°C° 0 mm 2 m/S 732 mmHg 19%
    06:00 +16°C° 0 mm 2 m/S 732 mmHg 19%
    07:00 +17°C° 0 mm 2 m/S 732 mmHg 20%
    08:00 +17°C° 0 mm 2 m/S 733 mmHg 20%
    09:00 +19°C° 0 mm 2 m/S 733 mmHg 18%
    10:00 +22°C° 0 mm 1 m/S 733 mmHg 15%
    11:00 +24°C° 0 mm 1 m/S 733 mmHg 13%
    12:00 +25°C° 0 mm 2 m/S 732 mmHg 12%
    13:00 +25°C° 0 mm 2 m/S 732 mmHg 12%
    14:00 +26°C° 0 mm 2 m/S 732 mmHg 11%
    15:00 +25°C° 0 mm 2 m/S 732 mmHg 13%
    16:00 +24°C° 0 mm 2 m/S 732 mmHg 15%
    17:00 +22°C° 0 mm 3 m/S 732 mmHg 16%
    18:00 +21°C° 0 mm 3 m/S 732 mmHg 19%
    19:00 +21°C° 0 mm 3 m/S 732 mmHg 21%
    20:00 +20°C° 0 mm 3 m/S 733 mmHg 23%
    21:00 +19°C° 0 mm 3 m/S 733 mmHg 26%
    22:00 +19°C° 0 mm 3 m/S 733 mmHg 28%
    23:00 +18°C° 0 mm 3 m/S 733 mmHg 31%

    26 November, Sonntag

    Zeit Temperatur Niederschläge Wind Luftdruck Luftfeuchtigkeit
    00:00 +18°C° 0 mm 3 m/S 733 mmHg 33%
    01:00 +17°C° 0 mm 3 m/S 733 mmHg 35%
    02:00 +17°C° 0 mm 3 m/S 733 mmHg 37%
    03:00 +16°C° 0 mm 3 m/S 733 mmHg 38%
    04:00 +16°C° 0 mm 3 m/S 733 mmHg 39%
    05:00 +16°C° 0 mm 3 m/S 733 mmHg 40%
    06:00 +16°C° 0 mm 3 m/S 734 mmHg 40%
    07:00 +16°C° 0 mm 3 m/S 734 mmHg 39%
    08:00 +16°C° 0 mm 3 m/S 735 mmHg 39%
    09:00 +18°C° 0 mm 3 m/S 735 mmHg 35%
    10:00 +20°C° 0 mm 3 m/S 735 mmHg 31%
    11:00 +22°C° 0 mm 3 m/S 735 mmHg 27%
    12:00 +24°C° 0 mm 3 m/S 734 mmHg 25%
    13:00 +24°C° 0 mm 3 m/S 734 mmHg 24%
    14:00 +25°C° 0 mm 3 m/S 733 mmHg 23%
    15:00 +24°C° 0 mm 3 m/S 733 mmHg 24%
    16:00 +23°C° 0 mm 2 m/S 733 mmHg 26%
    17:00 +21°C° 0 mm 2 m/S 732 mmHg 28%
    18:00 +20°C° 0 mm 2 m/S 733 mmHg 29%
    19:00 +19°C° 0 mm 2 m/S 733 mmHg 30%
    20:00 +19°C° 0 mm 2 m/S 733 mmHg 31%
    21:00 +18°C° 0 mm 2 m/S 733 mmHg 30%
    22:00 +18°C° 0 mm 2 m/S 733 mmHg 30%
    23:00 +18°C° 0 mm 2 m/S 733 mmHg 30%

    27 November, Montag

    Zeit Temperatur Niederschläge Wind Luftdruck Luftfeuchtigkeit
    00:00 +17°C° 0 mm 2 m/S 733 mmHg 29%
    01:00 +17°C° 0 mm 2 m/S 732 mmHg 29%
    02:00 +16°C° 0 mm 2 m/S 732 mmHg 28%
    03:00 +16°C° 0 mm 2 m/S 732 mmHg 28%
    04:00 +16°C° 0 mm 2 m/S 731 mmHg 28%
    05:00 +15°C° 0 mm 2 m/S 731 mmHg 27%
    06:00 +16°C° 0 mm 2 m/S 731 mmHg 26%
    07:00 +16°C° 0 mm 2 m/S 732 mmHg 26%
    08:00 +16°C° 0 mm 2 m/S 732 mmHg 25%
    09:00 +18°C° 0 mm 2 m/S 732 mmHg 22%
    10:00 +20°C° 0 mm 2 m/S 732 mmHg 19%
    11:00 +23°C° 0 mm 2 m/S 731 mmHg 16%
    12:00 +24°C° 0 mm 2 m/S 731 mmHg 15%
    13:00 +25°C° 0 mm 2 m/S 730 mmHg 14%
    14:00 +26°C° 0 mm 2 m/S 729 mmHg 13%
    15:00 +24°C° 0 mm 1 m/S 729 mmHg 15%
    16:00 +23°C° 0 mm 1 m/S 729 mmHg 17%
    17:00 +22°C° 0 mm 1 m/S 729 mmHg 19%
    18:00 +21°C° 0 mm 1 m/S 729 mmHg 20%
    19:00 +20°C° 0 mm 1 m/S 730 mmHg 21%
    20:00 +20°C° 0 mm 1 m/S 730 mmHg 22%
    21:00 +19°C° 0 mm 1 m/S 730 mmHg 22%
    22:00 +19°C° 0 mm 1 m/S 730 mmHg 22%
    23:00 +18°C° 0 mm 1 m/S 730 mmHg 23%

    28 November, Dienstag

    Zeit Temperatur Niederschläge Wind Luftdruck Luftfeuchtigkeit
    00:00 +18°C° 0 mm 1 m/S 730 mmHg 23%
    01:00 +16°C° 0 mm 1 m/S 730 mmHg 23%
    02:00 +16°C° 0 mm 1 m/S 730 mmHg 23%
    03:00 +15°C° 0 mm 1 m/S 730 mmHg 23%
    04:00 +15°C° 0 mm 1 m/S 730 mmHg 23%
    05:00 +15°C° 0 mm 1 m/S 730 mmHg 23%
    06:00 +15°C° 0 mm 1 m/S 730 mmHg 22%
    07:00 +15°C° 0 mm 1 m/S 731 mmHg 22%
    08:00 +16°C° 0 mm 1 m/S 731 mmHg 22%
    09:00 +19°C° 0 mm 1 m/S 731 mmHg 19%
    10:00 +21°C° 0 mm 1 m/S 731 mmHg 16%
    11:00 +23°C° 0 mm 2 m/S 731 mmHg 14%
    12:00 +23°C° 0 mm 2 m/S 731 mmHg 13%
    13:00 +24°C° 0 mm 2 m/S 730 mmHg 12%
    14:00 +25°C° 0 mm 2 m/S 730 mmHg 12%
    15:00 +24°C° 0 mm 2 m/S 730 mmHg 13%
    16:00 +23°C° 0 mm 2 m/S 730 mmHg 15%
    17:00 +22°C° 0 mm 1 m/S 729 mmHg 16%
    18:00 +21°C° 0 mm 1 m/S 730 mmHg 17%
    19:00 +21°C° 0 mm 1 m/S 730 mmHg 17%
    20:00 +20°C° 0 mm 1 m/S 730 mmHg 17%
    21:00 +19°C° 0 mm 1 m/S 730 mmHg 18%
    22:00 +19°C° 0 mm 1 m/S 730 mmHg 19%
    23:00 +18°C° 0 mm 1 m/S 730 mmHg 19%
    Mehr zeigen